User: anonymous   Login
Location: Unspecified
(0.0000°N, 0.0000°E)
Time: 04:16:44
(UTC+00:00)
Language:

Nadezhda 5 - Orbit

View from above orbital plane
View from above orbital plane
View from above satellite
View from above satellite

Ground track
Ground track

The orbit data is extracted from the following two-line orbital elements,

1 25567U 98072A   19054.12568166  .00000022  00000-0  73793-5 0  9993
2 25567  82.9442 254.8929 0025095 322.8518 157.5663 13.71843139 11639
Epoch (UTC): 23 February 2019 03:00:58
Eccentricity: 0.0025095
inclination: 82.9442°
perigee height: 974 km
apogee height: 1011 km
right ascension of ascending node: 254.8929°
argument of perigee: 322.8518°
revolutions per day: 13.71843139
mean anomaly at epoch: 157.5663°
orbit number at epoch: 1163

The dashed part of the orbit path shows where the satellite is in the earth's shadow,  

DLR